DMSP 5D-2 F13 DEB, 40526

Orbit data source: Space-Track

DMSP 5D-2 F13 DEB, 40526 is space debris in SSO originally from a launch on Fri, 24 Mar 1995 UTC launched from the Air Force Western Test Range (AFWTR). Debris objects in space refer to the collection of defunct objects orbiting the Earth. Examples of debris include non-operational satellites, rocket bodies, and fragments generated from explosions, collisions, or faulty payload assembly.

Loading next visibility...
Identifier
40526, 1995-015DN
Orbit
SSO
Country
Flag of USUS
Related business
Manufacturer
Unknown
Mission
Spacecraft
Bus & Motor
Unknown
Mass
Unknown
Launch date (UTC)
1995-03-24 (31 years ago)
Launch vehicle
Unknown
Launch site
Air Force Western Test Range (AFWTR)
Object type
Payload
Rocket body
Debris
Shape & HBR
Unknown shape, 0.1 m
Radar Cross Section
Small (<0.1 m²)

Expand to show TLE details & history
Last TLE update: 2 days ago

TLE from 2 days ago
0 DMSP 5D-2 F13 DEB
1 40526U 95015DN  25296.32245169  .00008132  00000-0  23970-2 0  9990
2 40526  98.6242 333.4179 0023167 294.7067  65.1711 14.43701719551104
Epoch: 2025-10-23T07:44Z
TLE epoch observation values (Epoch: 2025-10-23T07:44:19.826Z)
Latitude
-0.00002°
Longitude
-174.64807°
Altitude
742.343 km
Speed
7.487 km/s
True Right ascension
22h 13m 40s
True Declination
0° 00' 00"
Sunlit
Object was in full shadow at epoch
Visualization orbit readout
Latitude
Unknown
Longitude
Unknown
Altitude
Unknown
Speed
Unknown
Apparent Right ascension
Unknown
Apparent Declination
Unknown
Sunlit
N/A
Visualization observer readout
Local Sidereal Time
14:55:08
Azimuth
Unknown
Elevation
Unknown
Doppler factor
Unknown
Orbital elements
Apogee altitude
759.915 km
Perigee altitude
726.918 km
Semi-major axis
7,121.554 km
Eccentricity
0.00232
Inclination
98.6242°
RAAN
333.4179°
Arg. of periapsis
294.7067°
True anomaly
65.41233°
Mean anomaly
65.1711°
Eccentric anomaly
65.29168°
Mean motion
3.61145 °/min
Orbital period
99.68 mins
BSTAR
0.002397
Loading maneuver chart data...
Computing Atmospheric mass density...

Documentation

Showing up to 5 results
|